Regional Weather Roundup
Issued by NWS Cleveland, OH

Home | Current Version | Previous Version | Text Only | Print | Product List | Glossary Off
Versions: 1 2 3 4 5 6 7 8 9 10 11 12 13 14 15 16 17 18 19 20 21 22 23 24 25 26 27 28 29 30 31 32 33 34 35 36 37 38 39 40 41 42 43 44 45 46 47 48 49 50

109
ASUS41 KCLE 191410
RWRCLE
OHIO REGIONAL WEATHER ROUNDUP
NATIONAL WEATHER SERVICE CLEVELAND, OH
1000 AM EDT SAT AUG 19 2017

NOTE: "FAIR" INDICATES FEW OR NO CLOUDS BELOW 12,000 FEET WITH NO
SIGNIFICANT WEATHER AND/OR OBSTRUCTIONS TO VISIBILITY.

OHZ001>008-015>018-024>027-034-035-043-044-191500-
   NORTHWEST OHIO

CITY           SKY/WX    TMP DP  RH WIND       PRES   REMARKS
DEFIANCE       SUNNY     69  64  84 W6        29.92S
FINDLAY        SUNNY     73  64  73 SW7       29.91S
TOLEDO EXPRESS MOSUNNY   68  65  90 W7        29.91S
TOLEDO EXEC    MOSUNNY   70  65  84 NW8       29.92R
LIMA           SUNNY     73  66  78 SW6       29.93S
$$

OHZ009>014-019>023-028>033-038-089-191500-
   NORTHEAST OHIO

CITY           SKY/WX    TMP DP  RH WIND       PRES   REMARKS
CLE-HOPKINS    CLOUDY    70  65  84 SW8       29.93R
CLE-LAKEFRONT  PTSUNNY   71  66  84 SW7       29.89S
CUY CO. ARPT   PTSUNNY   72  64  78 W8        29.91R
LORAIN-ELYRIA  CLOUDY    68  61  78 W8        29.92R
ASHTABULA      MOSUNNY   69  66  90 SW8       29.91F
AKRON-CANTON   LGT RAIN  68  62  81 SW10      29.95R
WOOSTER        CLOUDY    66  65  96 CALM      29.95R
MANSFIELD      CLOUDY    69  65  86 S7        29.94F
YOUNGSTOWN     LGT RAIN  68  64  87 S7        29.92F
$$

OHZ042-051>053-060>062-070>072-077>081-191500-
  SOUTHWEST OHIO

CITY           SKY/WX    TMP DP  RH WIND       PRES   REMARKS
CINC-COVINGTON CLOUDY    73  70  90 S7        29.96S
CINC-LUNKEN    CLOUDY    74  69  85 S7        29.96R
HAMILTON       CLOUDY    77  69  76 SW6       29.96R
DAYTON         MOSUNNY   75  64  68 SW9       29.96R
WRIGHT-PAT AFB MOSUNNY   74  67  77 SW7       29.94R
DAYTON GENERAL CLOUDY    73  64  73 SW6       29.94F
WILMINGTON     SUNNY     75  68  78 SW9       29.95F
$$

OHZ036-037-039>041-045>050-054>059-063>069-073>076-082>088-191500-
  CENTRAL AND SOUTHEAST OHIO

CITY           SKY/WX    TMP DP  RH WIND       PRES   REMARKS
COLUMBUS       MOSUNNY   73  67  81 SW8       29.94R
OSU AIRPORT    MOSUNNY   73  69  87 S7        29.93S
BOLTON FIELD   SUNNY     73  66  78 SW10G20   29.95S
RICKENBACK AFB SUNNY     73  67  82 SW10      29.94S
NEWARK         MOSUNNY   72  66  81 SW8       29.94S
MARION         SUNNY     72  65  78 CALM      29.94R
LANCASTER      MOSUNNY   75  67  76 SW9       29.95S
ZANESVILLE     MOSUNNY   73  66  78 SW3       29.95F
NEW PHILLY     NOT AVBL
$$




USA.gov is the U.S. government's official web portal to all federal, state and local government web resources and services.